[Iaude] MPEC J215: 2024 JU6 [a=2.14,e=0.48,i=19.3,H=21.7]

mpec at cfa.harvard.edu mpec at cfa.harvard.edu
Thu May 9 04:58:13 EDT 2024


M.P.E.C. 2024-J215                                  Issued 2024 May 9, 08:56 UT

     The Minor Planet Electronic Circulars contain information on unusual
         minor planets, routine data on comets and natural satellites,
         and occasional editorial announcements.  They are published
    on behalf of Division F of the International Astronomical Union by the
          Minor Planet Center, Smithsonian Astrophysical Observatory,
                          Cambridge, MA 02138, U.S.A.
			  
             Prepared using the Tamkin Foundation Computer Network

                              MPC at CFA.HARVARD.EDU
            URL https://www.minorplanetcenter.net/    ISSN 1523-6714

                                    2024 JU6                                    


Observations:
     K24J06U*KC2024 05 06.96586 17 16 33.96 -05 57 03.0          20.0 GXEJ215L51
     K24J06U KC2024 05 06.97738 17 16 33.48 -05 56 13.4          20.2 GXEJ215L51
     K24J06U KC2024 05 06.98889 17 16 33.11 -05 55 23.9          20.8 GXEJ215L51
     K24J06U KB2024 05 07.33405 17 16 23.374-05 30 37.80         20.2 GVEJ215734
     K24J06U KB2024 05 07.33984 17 16 23.088-05 30 13.18         20.3 GVEJ215734
     K24J06U 1C2024 05 07.38939917 16 21.583-05 26 38.54         19.92GVEJ215G96
     K24J06U 1C2024 05 07.40166617 16 21.076-05 25 46.16         20.10GVEJ215G96
     K24J06U 1C2024 05 07.40778717 16 20.795-05 25 19.96         19.99GVEJ215G96
     K24J06U KC2024 05 07.91608 17 16 06.45 -04 49 38.3          20.4 GXEJ215L51
     K24J06U KC2024 05 07.92066 17 16 06.24 -04 49 19.9          20.0 GXEJ215L51
     K24J06U KC2024 05 07.92523 17 16 06.08 -04 49 01.0          20.3 GXEJ215L51
     K24J06U KC2024 05 08.00360 17 16 03.51 -04 42 57.7          20.1 GVEJ215M21
     K24J06U KB2024 05 08.04654817 16 02.12 -04 40 34.6          19.7 GXEJ215958
     K24J06U KB2024 05 08.05443617 16 01.79 -04 40 00.9          19.3 GXEJ215958
     K24J06U KB2024 05 08.06226417 16 01.42 -04 39 28.7          19.7 GXEJ215958
     K24J06U KC2024 05 08.34995217 15 51.89 -04 19 36.6          20.8 GVEJ215H21
     K24J06U KC2024 05 08.35279917 15 51.78 -04 19 24.8          20.4 GVEJ215H21
     K24J06U KC2024 05 08.35564517 15 51.66 -04 19 12.8          21.1 GVEJ215H21
     K24J06U KC2024 05 08.36019917 15 51.45 -04 18 54.1          21.0 GVEJ215H21
     K24J06U mC2024 05 08.40182717 15 50.382-04 16 00.05         20.13GVEJ215I52
     K24J06U mC2024 05 08.40584317 15 50.191-04 15 43.02         20.24GVEJ215I52
     K24J06U mC2024 05 08.40989317 15 49.993-04 15 27.11         20.34GVEJ215I52
     K24J06U mC2024 05 08.41399117 15 49.813-04 15 09.86               VEJ215I52
     K24J06U KB2024 05 09.34648 17 15 19.085-03 12 28.94         20.3 RZEJ215H36
     K24J06U KB2024 05 09.35748 17 15 18.619-03 11 45.31         20.3 RZEJ215H36

Observer details:
734 Farpoint Observatory, Eskridge.  Observers D. Cromer, G. Hug, D. Goodin,
    R. Valentine, P. Lessig.  Measurer G. Hug.  0.69-m f/3.54 reflector + CMO.
958 Observatoire de Dax.  Observer P. Dupouy.  0.50-m f/4.5 Reflector + CMO.
G96 Mt. Lemmon Survey.  Observer G. J. Leonard.  Measurers T. Beuden, V. F.
    Carvajal, D. Fay, J. B. Fazekas, D. C. Fuls, A. R. Gibbs, A. D. Grauer, H.
    Groeller, J. K. Hogan, R. A. Kowalski, S. M. Larson, G. J. Leonard, D.
    Rankin, R. L. Seaman, F. C. Shelly, K. W. Wierzchos.  1.5-m reflector +
    10K CCD.
H21 Astronomical Research Observatory, Westfield.  Observer R. Holmes.
    Measurers T. Linder, R. Holmes, L. Horn.  0.81-m f/4.0 astrograph + CCD.
H36 Sandlot Observatory, Scranton.  Observer G. Hug.  0.56-m f/4.8 reflector +
    CMO.
I52 Steward Observatory, Mt. Lemmon Station.  Observer H. Groeller.  Measurers
    T. Beuden, V. F. Carvajal, D. Fay, J. B. Fazekas, D. C. Fuls, A. R. Gibbs,
    A. D. Grauer, H. Groeller, J. K. Hogan, R. A. Kowalski, S. M. Larson, G.
    J. Leonard, D. Rankin, R. L. Seaman, F. C. Shelly, K. W. Wierzchos.  1.0-m
    prime focus + CCD.
L51 MARGO, Nauchnyi.  Observer G. Borisov.  0.50-m f/1.9 reflector + CCD.
M21 Schiaparelli Southern Observatory, Hakos.  Observers A. Aletti, F.
    Bellini, L. Buzzi, G. Galli.  Measurer L. Buzzi.  0.36-m f/8.4 reflector +
    CCD.

Orbital elements:
2024 JU6                                                 Earth MOID = 0.1453 AU
Epoch 2024 Mar. 31.0 TT = JDT 2460400.5                 MPC                     
M   3.28756              (2000.0)            P               Q                  
n   0.31532922     Peri.  324.78995     -0.96975990     +0.09758534             
a   2.1377647      Node   222.60221     -0.06412625     -0.98626032             
e   0.4845041      Incl.   19.29784     -0.23548578     -0.13329544             
P   3.13           H   21.73          G   0.15           U   9                  
Residuals in seconds of arc
240506 L51  0.6+  0.1+    240507 L51  0.3-  0.1+    240508 H21  0.2-  0.2+
240506 L51  0.0   0.1-    240507 L51  0.1+  0.1-    240508 I52  0.2+  0.1-
240506 L51  1.1+  0.4-    240508 M21  0.0   0.7-    240508 I52  0.0   0.4+
240507 734  0.4+  0.2-    240508 958  0.2+  0.2-    240508 I52  0.2-  0.3-
240507 734  0.4-  0.3-    240508 958  0.2+  0.6+    240508 I52  0.2-  0.1+
240507 G96  0.0   0.0     240508 958  0.5-  0.3+    240509 H36  0.6-  0.2+
240507 G96  0.1+  0.1+    240508 H21  0.1-  0.1-    240509 H36  0.1-  0.2+
240507 G96  0.3-  0.2+    240508 H21  0.0   0.1-
240507 L51  0.1+  0.8+    240508 H21  0.1+  0.2+

Ephemeris:
2024 JU6                 a,e,i = 2.14, 0.48, 19                  q = 1.1020
Date    TT    R. A. (2000) Decl.     Delta      r    Elong.  Phase     V
2024 04 09    16 53 28.0 -48 44 58   0.2237  1.1239   117.9    51.9    20.6
...
2024 04 24    17 17 01.0 -24 36 22   0.2199  1.1685   133.7    38.5    20.3
...
2024 05 02    17 18 11.5 -12 24 50   0.2364  1.2005   140.9    32.0    20.4
...
2024 05 08    17 16 03.1 -04 43 26   0.2570  1.2277   144.6    28.5    20.5
2024 05 09    17 15 30.8 -03 35 13   0.2610  1.2325   145.0    28.0    20.5
2024 05 10    17 14 56.1 -02 29 32   0.2652  1.2374   145.4    27.6    20.5
...
2024 05 16    17 10 48.4 +03 11 31   0.2938  1.2676   147.0    25.7    20.8
...
2024 05 24    17 04 24.7 +08 35 17   0.3398  1.3109   147.1    24.8    21.1
...
2024 06 08    16 53 21.8 +13 29 55   0.4459  1.3990   143.6    25.5    21.9

A. U. Tomatic                (C) Copyright 2024 MPC           M.P.E.C. 2024-J215





More information about the Iaude mailing list